Temp
-5 -6 -6 -6 -6 -6 -6 -6 -5 -6 -4 -5 -5 -6 -6 -6 -5 -5 -5 -5 -5 -5 -5 -5 -4 -4 -4 -4 -5 -5 -5 -4 -5 -5 -5 -5 -5 -5 -5 -5 -6 -6 -6 -7 -6 -6 -7 -7 -7
-5 -5 -5 -5 -6 -6 -5 -5 -6 -6 -5 -4 -5 -5 -6 -6 -5 -5 -6 -5 -5 -5 -5 -5 -4 -5 -5 -5 -5 -4 -5 -4 -4 -5 -5 -5 -5 -5 -5 -6 -6 -6 -7 -6 -6 -6 -6 -6 -7
-5 -6 -5 -5 -6 -6 -5 -5 -6 -5 -5 -5 -5 -5 -5 -5 -5 -6 -5 -5 -5 -5 -5 -5 -5 -5 -5 -4 -5 -5 -4 -4 -5 -5 -5 -5 -5 -5 -5 -6 -6 -6 -6 -6 -6 -6 -6 -6 -7
-5 -5 -5 -5 -5 -5 -5 -5 -5 -5 -6 -5 -5 -5 -5 -5 -5 -5 -5 -5 -5 -5 -5 -5 -5 -5 -5 -5 -5 -5 -5 -5 -5 -5 -5 -5 -5 -5 -5 -5 -6 -6 -6 -6 -6 -5 -6 -6 -6
-5 -5 -5 -5 -5 -5 -5 -6 -6 -6 -5 -5 -5 -5 -5 -5 -5 -5 -5 -5 -5 -5 -5 -5 -5 -5 -4 -4 -4 -5 -5 -5 -5 -5 -5 -5 -5 -5 -5 -5 -6 -6 -6 -6 -6 -5 -6 -6 -6
-7 -5 -5 -6 -6 -6 -6 -5 -5 -6 -5 -5 -5 -5 -5 -5 -5 -5 -5 -5 -5 -4 -5 -5 -5 -5 -5 -5 -4 -4 -5 -5 -5 -5 -5 -5 -5 -5 -5 -6 -5 -6 -6 -6 -6 -6 -6 -6 -6
-6 -6 -6 -6 -5 -5 -6 -6 -6 -5 -5 -5 -5 -5 -5 -5 -5 -5 -5 -5 -5 -4 -4 -5 -5 -4 -5 -5 -5 -5 -5 -5 -5 -5 -5 -5 -5 -5 -5 -5 -5 -6 -5 -6 -6 -6 -6 -6 -6
-5 -6 -6 -6 -7 -6 -6 -6 -6 -6 -5 -5 -4 -5 -4 -4 -5 -5 -5 -5 -5 -5 -4 -4 -5 -5 -5 -5 -5 -5 -5 -5 -5 -5 -5 -5 -5 -5 -5 -5 -6 -6 -5 -6 -6 -6 -6 -5 -5
-7 -7 -6 -7 -8 -7 -7 -5 -5 -6 -6 -5 -4 -5 -5 -5 -4 -4 -5 -5 -5 -5 -5 -5 -5 -5 -5 -5 -5 -5 -4 -4 -5 -5 -5 -5 -5 -5 -5 -5 -6 -6 -6 -6 -6 -6 -5 -5 -5
-6 -7 -5 -6 -6 -7 -6 -5 -4 -5 -5 -5 -4 -4 -4 -5 -5 -5 -5 -5 -5 -5 -5 -5 -5 -5 -5 -5 -5 -5 -5 -5 -5 -5 -5 -5 -5 -5 -5 -5 -6 -6 -5 -6 -6 -6 -5 -5 -5
-6 -7 -7 -7 -7 -5 -6 -5 -5 -5 -5 -5 -5 -4 -4 -4 -5 -4 -4 -4 -5 -5 -6 -5 -5 -5 -5 -5 -5 -5 -5 -5 -5 -5 -5 -5 -5 -5 -5 -5 -5 -6 -5 -5 -5 -5 -5 -5 -5
-4 -7 -6 -6 -6 -7 -6 -5 -6 -5 -6 -6 -5 -5 -4 -5 -4 -5 -5 -5 -4 -5 -6 -5 -5 -5 -6 -5 -5 -5 -5 -6 -6 -5 -5 -6 -5 -5 -5 -5 -5 -5 -5 -5 -5 -5 -5 -5 -5
-6 -7 -6 -6 -6 -7 -6 -6 -7 -6 -6 -6 -6 -5 -5 -5 -5 -5 -5 -5 -5 -5 -5 -5 -5 -6 -6 -6 -5 -5 -5 -6 -6 -6 -6 -6 -5 -5 -5 -6 -6 -5 -5 -5 -5 -5 -5 -5 -5
-6 -5 -6 -6 -6 -7 -6 -6 -7 -7 -6 -6 -6 -6 -6 -5 -5 -5 -5 -5 -5 -6 -6 -6 -5 -6 -5 -5 -5 -5 -5 -6 -6 -6 -5 -6 -6 -6 -6 -6 -6 -6 -6 -5 -6 -5 -5 -5 -5
-6 -6 -6 -6 -6 -6 -7 -7 -7 -7 -7 -7 -7 -7 -6 -6 -6 -5 -5 -5 -5 -5 -6 -6 -6 -5 -5 -6 -6 -6 -6 -6 -6 -6 -5 -6 -6 -6 -6 -6 -6 -5 -6 -5 -6 -5 -5 -5 -5
-4 -5 -7 -6 -6 -6 -6 -7 -7 -7 -7 -7 -7 -7 -7 -6 -6 -5 -5 -5 -6 -5 -6 -6 -6 -6 -6 -6 -6 -6 -6 -6 -6 -6 -6 -6 -6 -6 -6 -6 -5 -6 -6 -6 -6 -6 -5 -5 -5
-5 -6 -6 -6 -6 -6 -6 -7 -7 -6 -6 -7 -7 -7 -7 -6 -6 -6 -6 -6 -6 -6 -6 -6 -6 -6 -6 -6 -6 -6 -6 -6 -5 -6 -5 -6 -6 -6 -6 -6 -6 -7 -6 -6 -6 -6 -6 -5 -6
-6 -6 -6 -6 -6 -6 -6 -6 -6 -6 -6 -7 -7 -7 -7 -7 -6 -6 -6 -6 -6 -6 -6 -6 -6 -6 -6 -6 -5 -5 -6 -6 -6 -6 -6 -6 -6 -6 -6 -6 -6 -6 -6 -6 -6 -6 -6 -6 -5
-6 -6 -7 -6 -6 -6 -5 -6 -6 -6 -7 -7 -7 -7 -7 -7 -7 -7 -6 -6 -6 -6 -6 -6 -6 -6 -6 -6 -6 -6 -6 -6 -6 -6 -7 -6 -6 -6 -6 -6 -6 -7 -6 -6 -6 -6 -6 -6 -5
-5 -5 -7 -7 -6 -6 -6 -6 -6 -7 -6 -6 -6 -7 -7 -7 -7 -7 -7 -7 -7 -6 -6 -6 -6 -6 -6 -6 -6 -6 -6 -7 -7 -6 -6 -6 -6 -6 -7 -6 -6 -7 -7 -6 -6 -6 -6 -6 -6
-5 -6 -7 -7 -7 -7 -7 -6 -6 -6 -6 -7 -6 -6 -6 -7 -7 -7 -7 -7 -7 -7 -6 -6 -6 -6 -6 -6 -6 -6 -6 -6 -6 -7 -7 -6 -6 -7 -7 -7 -7 -7 -7 -6 -6 -6 -6 -6 -6
-7 -7 -8 -7 -7 -7 -6 -6 -7 -7 -6 -6 -6 -6 -6 -7 -7 -7 -7 -7 -7 -7 -7 -7 -7 -7 -6 -6 -5 -6 -6 -6 -6 -7 -7 -6 -7 -7 -7 -7 -8 -8 -8 -7 -6 -6 -6 -6 -6
-7 -8 -8 -8 -6 -7 -7 -7 -6 -7 -7 -7 -6 -6 -6 -6 -6 -7 -7 -7 -7 -7 -7 -7 -7 -6 -7 -6 -6 -6 -6 -5 -6 -6 -6 -6 -7 -6 -8 -7 -8 -9 -8 -7 -6 -6 -6 -6 -6
-7 -8 -8 -7 -7 -7 -7 -7 -6 -6 -7 -5 -7 -7 -7 -7 -7 -7 -7 -7 -7 -7 -6 -6 -7 -7 -6 -6 -6 -6 -6 -6 -6 -6 -6 -7 -7 -6 -7 -7 -7 -8 -7 -6 -6 -6 -6 -6 -6
-7 -7 -7 -7 -7 -6 -7 -7 -6 -6 -6 -7 -7 -8 -7 -7 -8 -7 -7 -7 -7 -7 -7 -6 -6 -6 -6 -6 -6 -6 -6 -6 -7 -7 -7 -7 -7 -7 -7 -7 -7 -7 -6 -5 -6 -6 -6 -6 -6
-6 -6 -6 -7 -6 -7 -7 -6 -6 -6 -6 -7 -7 -7 -7 -7 -8 -8 -7 -7 -7 -7 -7 -7 -7 -7 -6 -6 -6 -6 -6 -7 -7 -7 -7 -7 -7 -7 -7 -7 -7 -7 -6 -6 -5 -6 -6 -6 -6
-6 -6 -6 -6 -7 -7 -7 -6 -6 -6 -6 -6 -6 -7 -6 -6 -7 -7 -7 -7 -7 -7 -7 -6 -7 -7 -7 -7 -7 -7 -6 -6 -7 -7 -6 -7 -7 -6 -7 -7 -7 -7 -7 -5 -5 -6 -6 -6 -6
-6 -6 -6 -7 -7 -7 -6 -6 -6 -6 -6 -7 -7 -7 -6 -7 -7 -7 -7 -8 -7 -7 -7 -7 -7 -7 -8 -8 -7 -7 -7 -7 -7 -7 -7 -7 -7 -7 -7 -7 -7 -7 -6 -6 -6 -6 -6 -6 -6
-7 -6 -6 -6 -6 -7 -6 -6 -6 -7 -7 -7 -7 -7 -7 -6 -7 -7 -7 -8 -8 -8 -8 -8 -8 -8 -9 -9 -8 -7 -7 -7 -7 -7 -7 -7 -7 -7 -7 -7 -7 -7 -7 -6 -7 -7 -6 -6 -6
-7 -7 -6 -6 -6 -6 -6 -6 -7 -7 -8 -7 -7 -7 -7 -6 -7 -6 -7 -7 -8 -8 -8 -8 -8 -9 -9 -8 -8 -7 -7 -7 -7 -7 -7 -7 -7 -7 -7 -7 -7 -8 -7 -7 -7 -7 -7 -7 -6
Height
5915 5911 5909 5909 5911 5907 5904 5904 5903 5902 5901 5902 5903 5904 5905 5906 5905 5907 5909 5907 5906 5906 5908 5909 5910 5910 5912 5915 5917 5917 5917 5918 5921 5922 5921 5920 5920 5920 5920 5920 5918 5917 5915 5915 5914 5910 5908 5906 5906
5916 5914 5913 5911 5910 5909 5909 5907 5909 5908 5907 5906 5907 5906 5906 5909 5908 5908 5910 5911 5910 5911 5911 5913 5913 5915 5917 5919 5920 5918 5919 5921 5922 5923 5923 5925 5924 5923 5921 5922 5918 5916 5916 5917 5916 5913 5911 5909 5908
5923 5920 5919 5915 5912 5912 5911 5912 5914 5913 5909 5909 5909 5909 5909 5910 5911 5910 5912 5913 5913 5913 5914 5915 5917 5918 5919 5920 5921 5921 5921 5924 5924 5924 5925 5928 5928 5925 5924 5923 5921 5918 5917 5918 5916 5914 5913 5912 5910
5928 5925 5922 5917 5914 5914 5914 5914 5915 5914 5913 5913 5913 5914 5914 5913 5912 5912 5913 5915 5915 5916 5917 5918 5920 5920 5921 5923 5923 5925 5926 5925 5926 5926 5926 5930 5931 5928 5928 5925 5923 5921 5920 5918 5917 5917 5915 5914 5912
5932 5927 5922 5921 5917 5917 5916 5916 5916 5917 5916 5915 5916 5917 5916 5916 5915 5915 5916 5917 5917 5917 5919 5920 5921 5921 5926 5926 5926 5929 5929 5928 5929 5929 5931 5931 5932 5931 5929 5928 5925 5925 5924 5922 5918 5917 5916 5916 5914
5932 5931 5927 5925 5923 5921 5920 5919 5920 5920 5918 5918 5917 5919 5919 5918 5917 5918 5919 5919 5919 5920 5921 5922 5924 5924 5927 5928 5929 5931 5932 5931 5932 5932 5934 5934 5934 5934 5932 5931 5928 5927 5924 5923 5922 5921 5919 5917 5916
5935 5934 5930 5929 5929 5925 5923 5922 5922 5921 5921 5920 5920 5920 5920 5918 5919 5919 5921 5921 5922 5922 5923 5923 5925 5926 5930 5931 5931 5933 5934 5933 5934 5934 5933 5935 5935 5935 5933 5933 5932 5929 5926 5925 5925 5924 5924 5922 5919
5930 5934 5936 5931 5931 5929 5927 5929 5925 5922 5923 5923 5922 5921 5920 5918 5920 5920 5922 5922 5924 5924 5925 5926 5927 5929 5931 5932 5933 5934 5936 5935 5935 5934 5935 5936 5935 5935 5934 5932 5931 5929 5927 5927 5926 5925 5924 5923 5922
5934 5935 5934 5931 5934 5931 5931 5933 5929 5927 5924 5923 5925 5925 5925 5922 5920 5921 5922 5924 5925 5926 5928 5928 5929 5931 5933 5934 5935 5935 5937 5937 5935 5934 5935 5935 5936 5935 5935 5932 5932 5931 5929 5929 5928 5926 5923 5924 5924
5932 5934 5933 5934 5936 5934 5932 5933 5931 5929 5928 5924 5924 5929 5929 5928 5924 5925 5925 5926 5927 5929 5929 5930 5931 5933 5936 5935 5935 5936 5937 5937 5935 5934 5934 5936 5937 5935 5934 5933 5932 5932 5931 5929 5927 5926 5924 5924 5924
5931 5931 5933 5938 5940 5941 5937 5934 5934 5931 5929 5927 5925 5927 5929 5930 5929 5926 5925 5925 5928 5930 5930 5932 5933 5934 5936 5935 5935 5936 5938 5937 5934 5935 5936 5937 5938 5936 5934 5934 5932 5932 5931 5930 5928 5927 5925 5925 5925
5937 5936 5938 5942 5943 5942 5939 5939 5935 5934 5930 5930 5930 5926 5930 5929 5929 5929 5929 5930 5931 5931 5931 5931 5934 5935 5935 5935 5934 5934 5936 5935 5936 5936 5936 5937 5937 5937 5934 5933 5931 5931 5931 5930 5929 5928 5927 5926 5926
5937 5945 5941 5943 5939 5940 5939 5938 5932 5936 5933 5933 5932 5931 5927 5929 5929 5930 5931 5931 5929 5930 5932 5932 5933 5933 5934 5935 5935 5935 5936 5936 5936 5937 5936 5937 5938 5935 5933 5932 5931 5930 5930 5929 5929 5927 5927 5927 5927
5945 5948 5946 5943 5942 5941 5941 5939 5938 5939 5937 5934 5934 5934 5931 5929 5930 5928 5930 5932 5932 5933 5934 5934 5934 5934 5935 5936 5937 5936 5935 5936 5936 5936 5936 5936 5936 5934 5933 5933 5931 5930 5929 5929 5928 5927 5926 5927 5926
5946 5945 5946 5947 5944 5941 5942 5942 5941 5940 5940 5939 5938 5937 5935 5933 5931 5931 5930 5930 5930 5931 5933 5934 5934 5934 5934 5935 5936 5935 5935 5936 5935 5936 5935 5935 5934 5934 5934 5934 5933 5931 5929 5929 5927 5927 5927 5926 5924
5944 5944 5946 5949 5948 5946 5944 5944 5942 5942 5943 5943 5941 5939 5938 5937 5935 5934 5931 5931 5931 5930 5931 5932 5932 5933 5935 5935 5934 5934 5934 5935 5934 5936 5937 5936 5935 5933 5933 5932 5931 5931 5929 5928 5926 5925 5925 5925 5924
5943 5946 5946 5949 5947 5946 5944 5940 5942 5944 5943 5944 5942 5942 5940 5938 5936 5934 5932 5931 5932 5930 5930 5931 5931 5931 5932 5932 5932 5932 5934 5935 5933 5928 5936 5936 5935 5935 5932 5931 5929 5929 5929 5927 5926 5924 5925 5926 5924
5944 5945 5945 5948 5947 5946 5944 5946 5941 5943 5947 5945 5942 5940 5939 5937 5936 5934 5933 5932 5932 5931 5930 5931 5930 5930 5930 5930 5930 5931 5933 5933 5935 5934 5936 5936 5936 5934 5931 5930 5930 5929 5928 5927 5926 5925 5924 5926 5925
5941 5941 5944 5945 5946 5948 5948 5946 5946 5945 5946 5946 5942 5939 5938 5937 5936 5934 5933 5933 5932 5932 5931 5931 5931 5930 5930 5929 5930 5930 5933 5934 5934 5935 5935 5935 5937 5934 5931 5932 5929 5929 5928 5926 5925 5924 5924 5925 5925
5938 5938 5940 5945 5944 5942 5947 5947 5946 5946 5945 5945 5942 5940 5938 5939 5938 5935 5935 5934 5934 5933 5934 5932 5931 5931 5930 5931 5931 5930 5931 5935 5934 5934 5934 5934 5935 5932 5931 5931 5930 5929 5928 5927 5925 5924 5923 5924 5923
5937 5937 5939 5943 5943 5940 5944 5946 5946 5945 5944 5946 5945 5942 5939 5939 5939 5937 5937 5936 5935 5935 5935 5932 5932 5932 5932 5932 5932 5932 5932 5932 5933 5934 5934 5935 5933 5932 5932 5931 5928 5926 5926 5925 5925 5923 5922 5922 5923
5933 5936 5937 5939 5942 5940 5939 5943 5944 5943 5943 5946 5946 5942 5943 5940 5939 5939 5939 5937 5937 5936 5936 5933 5932 5932 5932 5933 5933 5933 5932 5933 5933 5933 5933 5932 5932 5934 5932 5930 5924 5919 5920 5922 5924 5922 5921 5921 5921
5933 5932 5935 5936 5939 5938 5937 5941 5941 5939 5942 5942 5943 5942 5941 5941 5938 5939 5941 5939 5937 5936 5935 5934 5933 5932 5932 5932 5932 5932 5932 5932 5931 5931 5932 5931 5932 5931 5930 5929 5923 5919 5919 5919 5921 5921 5921 5921 5921
5929 5929 5931 5933 5935 5936 5939 5939 5939 5937 5937 5937 5938 5937 5939 5938 5937 5940 5941 5939 5937 5936 5935 5934 5933 5933 5933 5932 5933 5932 5931 5931 5931 5931 5930 5930 5930 5928 5930 5927 5921 5917 5914 5915 5918 5919 5919 5919 5920
5923 5927 5927 5929 5931 5935 5936 5936 5935 5934 5932 5931 5931 5935 5936 5934 5934 5939 5940 5939 5937 5936 5934 5934 5932 5933 5933 5933 5933 5933 5933 5931 5931 5931 5930 5930 5930 5929 5929 5926 5920 5913 5909 5911 5915 5917 5918 5918 5919
5919 5922 5925 5926 5930 5934 5933 5933 5934 5930 5929 5930 5932 5933 5934 5930 5932 5937 5937 5938 5936 5935 5934 5932 5930 5930 5931 5932 5933 5934 5933 5932 5932 5931 5930 5930 5930 5929 5928 5925 5919 5913 5910 5910 5913 5915 5916 5916 5917
5917 5917 5922 5923 5926 5928 5930 5932 5930 5929 5928 5930 5930 5932 5932 5932 5931 5934 5935 5935 5935 5935 5932 5931 5930 5929 5929 5931 5932 5933 5933 5932 5931 5931 5930 5930 5930 5929 5929 5925 5921 5917 5913 5912 5913 5915 5915 5915 5914
5911 5916 5916 5919 5922 5925 5927 5929 5928 5928 5927 5929 5931 5932 5930 5930 5931 5932 5932 5933 5934 5934 5932 5930 5929 5929 5928 5928 5931 5931 5931 5930 5930 5930 5929 5929 5929 5929 5929 5926 5923 5920 5917 5916 5915 5914 5913 5913 5912
5909 5910 5914 5917 5920 5922 5925 5925 5925 5927 5928 5930 5931 5933 5931 5929 5930 5930 5928 5931 5932 5932 5931 5930 5928 5927 5927 5927 5929 5929 5930 5930 5930 5930 5930 5929 5929 5928 5927 5926 5924 5921 5920 5918 5916 5914 5913 5912 5911
5906 5908 5912 5914 5920 5922 5923 5921 5921 5921 5923 5929 5931 5931 5931 5928 5927 5927 5928 5928 5930 5932 5932 5929 5927 5926 5926 5926 5927 5928 5928 5928 5928 5929 5929 5929 5927 5926 5925 5924 5922 5921 5918 5916 5915 5913 5912 5910 5909
Wind_Speed
18 19 18 15 12 17 15 17 22 21 19 21 16 16 19 19 23 23 20 28 24 23 19 19 20 22 21 19 18 17 17 17 14 16 16 17 17 18 18 17 20 20 19 16 15 17 15 17 18
25 26 19 17 13 9 11 18 20 16 17 19 18 17 19 19 19 22 17 15 17 20 21 20 20 20 19 17 15 18 16 15 15 15 16 15 16 17 18 16 17 20 20 18 18 19 16 17 18
25 23 21 22 15 9 12 17 18 15 19 16 16 17 18 18 15 19 18 15 17 17 18 18 18 18 18 16 14 15 16 15 14 15 17 15 14 17 16 16 16 18 20 21 19 20 18 17 15
27 27 25 23 23 18 17 14 14 17 15 14 15 14 16 15 14 16 12 14 16 16 15 15 15 14 16 14 14 12 13 15 14 14 16 13 12 15 16 16 15 18 19 20 20 17 17 17 14
32 30 29 25 24 25 22 20 13 13 11 12 14 12 14 13 15 13 14 12 13 16 14 14 14 14 13 12 13 11 11 13 13 13 12 12 13 12 12 12 14 15 17 17 18 20 16 15 14
27 28 25 24 21 21 24 22 18 12 10 8 11 11 11 12 15 13 15 16 13 12 11 13 13 13 12 13 13 11 9 11 11 13 10 12 13 10 10 10 13 12 13 15 15 17 17 17 12
28 28 26 22 22 26 26 22 20 15 9 8 10 11 10 10 13 13 12 13 15 14 13 12 11 13 13 12 13 10 8 9 9 10 10 10 11 10 9 11 11 10 11 14 14 14 16 13 14
24 26 24 25 20 22 26 21 19 18 13 8 8 10 6 8 12 12 10 11 10 12 12 13 13 13 13 13 12 10 8 7 7 8 8 8 8 7 7 11 9 9 12 15 14 15 15 18 14
20 21 12 18 19 17 20 17 22 21 15 14 13 11 7 7 5 10 11 9 9 11 12 14 15 13 12 13 12 10 7 6 7 7 6 6 4 5 8 9 8 11 12 13 15 17 13 19 18
11 9 14 11 18 16 17 21 21 23 23 20 17 15 11 11 6 6 11 11 11 11 12 11 13 13 11 11 10 8 5 6 6 5 5 4 2 5 7 8 8 9 10 12 13 13 11 14 14
8 3 16 22 19 14 19 24 25 25 23 23 22 16 13 11 10 6 4 6 9 11 11 12 11 10 9 8 6 5 3 4 5 4 6 5 2 4 6 7 7 8 10 10 11 10 5 11 12
11 19 22 24 17 13 11 19 24 26 27 23 20 18 14 11 10 8 7 6 7 8 9 8 9 8 7 4 2 2 2 4 3 4 5 4 3 2 5 6 7 8 9 9 10 10 10 8 9
11 17 20 15 10 7 10 14 21 23 25 25 20 17 18 13 10 10 10 7 3 2 3 4 5 4 4 3 2 0 2 3 1 2 1 1 2 3 2 4 4 6 6 7 9 10 9 9 7
4 4 8 10 9 2 14 10 15 19 25 25 23 18 18 17 12 11 10 10 8 6 5 8 7 7 6 5 4 3 4 2 1 2 2 1 1 0 3 5 5 5 5 5 6 7 8 8 7
4 2 6 7 7 14 13 12 14 19 24 22 22 20 17 15 15 13 12 11 8 5 5 3 5 6 5 6 5 3 2 4 5 4 3 3 2 2 4 6 6 6 5 5 6 6 7 8 7
4 4 10 5 9 14 16 20 14 15 15 17 16 16 18 15 13 12 15 15 11 6 4 4 1 1 5 6 4 4 7 6 6 3 2 1 3 2 5 7 8 8 7 5 5 3 5 6 4
1 10 7 4 15 10 10 10 13 11 9 9 14 13 13 15 14 13 14 15 14 8 3 3 3 3 4 8 7 8 6 4 4 8 2 2 2 4 6 7 8 8 7 4 4 4 3 5 4
4 9 4 13 9 4 5 17 9 13 11 7 11 12 10 15 16 15 14 13 11 11 4 4 5 4 6 7 7 7 7 3 4 3 1 3 3 6 8 8 7 8 8 5 3 2 0 2 2
7 2 7 10 18 3 5 15 15 15 12 4 13 12 10 13 16 16 13 13 9 9 8 4 5 3 6 7 5 5 8 5 4 2 3 1 2 8 10 10 7 8 7 5 5 4 3 0 1
15 2 10 9 9 8 6 11 10 9 9 5 11 7 9 11 13 15 13 12 11 6 5 6 5 4 4 3 3 4 4 9 5 4 4 2 4 7 5 11 9 9 8 7 3 4 5 2 2
17 5 7 5 6 7 12 6 7 6 11 15 6 7 10 11 10 13 11 8 9 7 3 4 4 2 1 2 3 3 5 5 6 4 4 2 4 5 7 16 20 18 10 8 6 4 5 4 3
10 7 12 6 3 3 15 10 8 7 8 9 7 13 14 11 10 9 9 8 5 6 5 6 5 3 1 2 2 3 5 6 6 5 4 3 4 8 15 17 21 17 12 8 8 5 5 4 5
18 7 13 8 1 4 7 14 8 10 5 5 5 3 14 9 6 6 7 5 3 0 3 5 5 4 5 4 2 3 5 5 5 5 4 6 6 9 12 18 17 9 9 10 9 7 4 1 5
21 15 18 10 11 6 10 10 12 19 16 7 4 12 16 9 8 3 4 7 6 3 4 4 3 1 1 4 6 5 3 6 6 6 7 7 5 8 10 14 18 12 10 11 11 9 5 3 2
22 30 21 19 16 11 7 13 14 14 14 5 6 6 14 17 3 4 7 7 10 8 7 9 7 4 3 2 4 6 4 1 3 6 4 2 1 8 11 14 18 20 8 14 12 10 7 4 4
22 18 26 25 18 11 8 12 9 13 9 6 9 14 22 23 6 5 10 5 6 10 11 9 10 9 7 6 3 2 4 2 2 4 4 2 2 6 10 15 20 23 15 4 10 11 7 5 7
14 20 13 15 19 16 10 10 7 9 13 10 12 14 16 19 11 6 10 10 7 4 7 7 8 12 11 10 5 3 6 5 5 3 1 6 2 5 9 15 18 19 18 8 5 7 5 6 8
12 13 20 22 19 12 10 7 9 12 13 8 12 16 18 17 16 11 7 9 9 8 7 7 7 9 13 11 6 6 6 8 8 6 3 4 0 4 7 12 15 17 16 13 6 1 3 6 8
5 18 20 23 20 13 9 12 8 11 10 12 17 14 16 16 14 19 6 8 10 8 7 4 4 7 13 11 8 8 10 11 10 9 7 5 6 6 6 8 9 11 12 10 9 6 3 2 5
11 15 17 20 15 7 8 10 10 16 17 19 22 13 17 15 13 11 5 3 5 4 2 4 4 5 11 15 12 12 14 12 12 7 5 6 9 10 9 10 11 6 6 7 7 8 6 6 6
Wind_Direction
48 59 65 66 78 68 79 60 59 56 61 81 89 104 100 103 103 106 112 114 115 116 114 112 112 109 106 114 118 116 108 110 105 104 104 94 92 86 75 70 72 67 67 67 65 63 57 66 70
43 39 44 65 69 75 46 65 64 75 72 74 93 97 105 113 108 110 113 107 113 114 117 113 109 107 110 111 115 107 106 103 110 104 94 90 88 86 81 69 64 65 67 68 63 63 60 55 62
54 49 48 59 72 56 51 59 72 82 79 80 88 97 114 122 113 113 105 116 108 103 106 109 111 112 112 117 117 110 114 120 107 100 93 89 88 87 82 76 64 61 61 67 69 66 58 57 58
52 55 48 48 60 65 57 68 68 73 79 93 95 100 110 120 122 117 126 120 111 110 112 108 107 110 114 125 121 114 121 113 104 98 94 99 96 86 75 70 66 63 61 62 64 61 62 58 52
47 44 51 39 42 55 55 66 81 76 74 75 94 101 109 124 124 124 128 126 120 117 119 115 114 113 121 120 115 117 111 106 102 92 95 98 93 85 76 68 68 58 61 58 56 59 48 51 46
29 43 41 50 49 53 48 55 64 93 96 87 83 100 107 120 120 126 131 133 130 115 113 111 117 113 110 116 117 114 106 101 104 103 95 91 85 75 63 60 63 55 50 50 52 51 40 45 44
57 34 38 44 50 62 56 48 60 67 82 99 95 99 108 104 115 121 125 131 138 135 131 119 120 114 120 118 114 114 108 111 112 105 103 83 74 70 61 55 46 46 44 36 40 51 50 36 44
62 50 44 38 39 49 53 57 57 63 64 79 99 84 87 83 102 111 114 128 132 130 129 129 120 121 126 120 116 114 114 113 111 98 93 75 65 53 54 57 44 46 58 55 47 38 48 47 39
63 69 61 64 44 45 46 38 72 72 79 68 76 104 113 112 94 116 114 124 126 128 129 125 123 125 127 127 116 111 117 107 106 100 92 82 61 58 50 64 49 53 49 47 47 41 49 41 52
76 74 28 63 70 71 62 45 66 62 59 66 66 85 113 124 136 147 148 136 119 129 128 129 130 133 130 121 110 103 101 101 106 104 91 79 52 74 82 64 45 44 28 36 43 42 47 45 59
33 87 46 2 38 61 64 63 61 62 55 51 54 62 73 103 147 153 115 98 137 140 135 145 130 133 126 110 105 85 70 93 92 89 84 73 67 83 63 50 34 17 32 37 36 37 17 21 58
19 351 346 358 339 347 45 66 63 56 57 54 45 51 68 79 94 124 142 175 178 145 154 156 150 144 135 141 167 89 78 55 72 91 81 77 86 78 51 20 28 25 21 40 35 34 29 28 40
13 14 323 339 37 61 50 46 67 51 57 56 55 48 51 66 88 109 115 131 145 209 225 226 187 173 205 218 245 113 162 118 207 63 67 78 118 68 62 22 30 35 32 34 30 21 16 21 20
80 15 17 340 6 118 74 53 73 55 44 52 56 52 53 51 55 82 101 121 135 143 178 224 239 226 221 231 227 196 58 109 119 146 190 88 8 95 348 323 341 1 354 15 4 4 355 3 13
190 85 354 23 34 68 55 42 71 57 40 44 53 52 54 56 56 72 82 76 79 122 140 148 203 222 199 222 209 172 122 114 110 162 134 115 141 18 311 305 321 321 310 335 337 345 349 357 360
188 78 1 38 90 92 82 64 61 57 40 28 45 51 48 52 62 63 71 66 65 42 146 144 113 210 203 189 184 189 164 156 131 97 105 12 345 309 305 328 321 326 322 351 316 343 353 4 15
266 51 323 43 82 66 70 85 78 63 63 45 51 50 52 48 54 53 62 67 65 60 60 146 168 195 173 162 179 182 178 189 171 70 227 75 80 345 22 355 349 352 346 352 338 356 359 357 45
160 100 45 44 129 159 111 48 62 79 26 33 56 56 44 49 45 56 56 59 65 66 62 82 125 138 161 161 174 163 146 186 117 214 138 259 350 16 24 350 354 354 358 348 312 301 315 16 74
220 181 3 19 65 297 79 83 42 45 24 29 67 61 56 55 52 55 56 61 61 74 54 78 118 120 139 157 154 161 132 116 127 91 70 333 342 14 9 332 346 338 332 337 337 319 310 117 284
234 223 338 15 53 73 313 79 34 25 34 9 33 45 71 76 61 54 53 55 65 72 88 70 115 146 173 167 157 143 112 107 113 153 146 117 329 3 317 312 331 307 306 304 311 305 314 284 294
199 194 303 325 103 30 336 351 18 351 57 41 25 59 101 93 67 56 53 54 64 57 82 102 85 113 189 192 189 154 136 136 125 122 119 252 331 337 312 314 308 301 270 283 289 297 303 285 309
195 227 254 340 143 357 322 286 321 298 40 20 347 47 54 106 76 58 52 45 54 68 79 91 102 101 99 254 235 192 182 164 154 164 210 279 313 326 325 327 330 302 239 235 264 289 317 310 336
154 227 269 291 319 351 181 300 277 295 293 342 142 4 23 72 73 50 22 20 13 23 117 102 77 68 48 34 12 258 234 214 219 224 249 271 321 341 346 340 1 333 241 228 239 253 282 303 354
173 219 235 253 265 286 288 299 307 343 325 354 114 331 1 43 37 44 29 350 328 290 214 181 147 115 62 14 13 8 255 239 235 229 253 288 342 9 16 0 10 355 248 237 234 240 247 283 318
207 199 221 234 243 232 271 311 304 298 326 353 356 4 340 348 80 347 322 331 301 287 238 227 208 227 269 333 355 9 14 203 215 211 253 331 70 20 1 16 20 16 331 232 234 231 240 267 281
239 235 224 229 224 221 287 298 289 290 305 272 295 327 341 327 307 318 315 342 287 288 270 239 217 224 239 258 312 326 301 312 305 296 286 245 87 26 32 31 30 31 33 177 211 214 232 258 280
240 237 227 188 191 221 260 303 272 321 305 296 328 317 345 358 288 280 323 316 282 266 269 274 249 234 239 235 234 249 251 271 295 335 33 148 125 69 42 35 36 42 43 54 172 209 242 272 275
241 207 191 191 204 222 257 302 313 309 296 263 292 314 342 323 264 275 302 296 269 259 281 288 301 262 240 245 237 239 245 261 267 268 230 213 29 48 32 32 34 41 45 52 72 145 274 280 284
262 218 205 201 206 222 250 278 255 251 243 243 291 309 328 331 265 269 222 245 254 262 266 294 306 281 242 251 248 247 261 272 277 285 247 292 315 319 346 6 24 39 42 44 51 44 22 350 304
320 214 204 190 191 214 261 239 219 210 202 240 270 281 307 315 228 258 278 220 193 211 263 271 292 261 243 241 256 263 268 274 280 268 277 301 315 312 315 328 338 354 40 38 36 35 15 350 339